| time (UTC) | temp F | wind direction | speed knots | gust knots | rain 1hr in | rain 24hr in | rain mn in | humidity % | barometer mb |
| 20260504000012 | 60 | 223 | 0.0 | 8.7 | 0.00 | 0.00 | 0.00 | 53 | 1010.2 |
| 20260503235507 | 60 | 232 | 1.7 | 8.7 | 0.00 | 0.00 | 0.00 | 53 | 1010.3 |
| 20260503235005 | 60 | 182 | 0.9 | 6.1 | 0.00 | 0.00 | 0.00 | 54 | 1010.2 |
| 20260503234516 | 60 | 200 | 0.0 | 6.1 | 0.00 | 0.00 | 0.00 | 53 | 1010.3 |
| 20260503234006 | 60 | 200 | 0.0 | 7.0 | 0.00 | 0.00 | 0.00 | 53 | 1010.3 |
| 20260503233507 | 60 | 157 | 0.0 | 7.0 | 0.00 | 0.00 | 0.00 | 54 | 1010.3 |
| 20260503233024 | 60 | 179 | 0.9 | 7.0 | 0.00 | 0.00 | 0.00 | 53 | 1010.2 |
| 20260503232505 | 60 | 186 | 1.7 | 7.8 | 0.00 | 0.00 | 0.00 | 53 | 1010.4 |
| 20260503232008 | 60 | 236 | 2.6 | 10.4 | 0.00 | 0.00 | 0.00 | 52 | 1010.5 |
| 20260503231523 | 60 | 187 | 3.5 | 13.9 | 0.00 | 0.00 | 0.00 | 52 | 1010.6 |
| 20260503231008 | 60 | 207 | 4.3 | 13.9 | 0.00 | 0.00 | 0.00 | 52 | 1010.6 |
| 20260503230504 | 60 | 183 | 3.5 | 13.0 | 0.00 | 0.00 | 0.00 | 52 | 1010.5 |
| 20260503230020 | 60 | 190 | 1.7 | 10.4 | 0.00 | 0.00 | 0.00 | 52 | 1010.4 |
| 20260503225506 | 60 | 207 | 4.3 | 10.4 | 0.00 | 0.00 | 0.00 | 52 | 1010.3 |
| 20260503225003 | 60 | 213 | 0.0 | 8.7 | 0.00 | 0.00 | 0.00 | 51 | 1010.4 |
| 20260503224517 | 60 | 217 | 0.0 | 8.7 | 0.00 | 0.00 | 0.00 | 51 | 1010.7 |
| 20260503224007 | 59 | 186 | 3.5 | 10.4 | 0.00 | 0.00 | 0.00 | 51 | 1010.6 |
| 20260503223511 | 59 | 203 | 4.3 | 12.2 | 0.00 | 0.00 | 0.00 | 52 | 1010.9 |
| 20260503223018 | 59 | 199 | 6.1 | 12.2 | 0.00 | 0.00 | 0.00 | 51 | 1010.9 |
| 20260503222508 | 59 | 215 | 2.6 | 9.6 | 0.00 | 0.00 | 0.00 | 51 | 1010.8 |
| 20260503222008 | 60 | 159 | 0.9 | 9.6 | 0.00 | 0.00 | 0.00 | 50 | 1010.7 |
| 20260503221526 | 60 | 190 | 1.7 | 9.6 | 0.00 | 0.00 | 0.00 | 52 | 1010.7 |
| 20260503221009 | 60 | 216 | 3.5 | 10.4 | 0.00 | 0.00 | 0.00 | 50 | 1011.0 |
| 20260503220509 | 60 | 244 | 4.3 | 12.2 | 0.00 | 0.00 | 0.00 | 49 | 1011.1 |
| 20260503220028 | 60 | 165 | 1.7 | 12.2 | 0.00 | 0.00 | 0.00 | 49 | 1011.0 |
| 20260503215503 | 60 | 160 | 0.0 | 8.7 | 0.00 | 0.00 | 0.00 | 51 | 1011.1 |
| 20260503215009 | 60 | 276 | 3.5 | 10.4 | 0.00 | 0.00 | 0.00 | 49 | 1011.2 |
| 20260503214509 | 60 | 128 | 3.5 | 12.2 | 0.00 | 0.00 | 0.00 | 48 | 1010.7 |
| 20260503214007 | 60 | 134 | 3.5 | 12.2 | 0.00 | 0.00 | 0.00 | 48 | 1010.9 |
| 20260503213509 | 59 | 84 | 5.2 | 15.6 | 0.00 | 0.00 | 0.00 | 50 | 1011.0 |
| 20260503213020 | 60 | 255 | 2.6 | 17.4 | 0.00 | 0.00 | 0.00 | 48 | 1011.0 |
| 20260503212505 | 60 | 222 | 5.2 | 17.4 | 0.00 | 0.00 | 0.00 | 51 | 1011.1 |
| 20260503212008 | 59 | 216 | 4.3 | 11.3 | 0.00 | 0.00 | 0.00 | 49 | 1011.1 |
| 20260503211532 | 59 | 224 | 4.3 | 11.3 | 0.00 | 0.00 | 0.00 | 50 | 1011.5 |
| 20260503211012 | 59 | 202 | 0.9 | 13.0 | 0.00 | 0.00 | 0.00 | 49 | 1011.7 |
| 20260503210506 | 59 | 105 | 2.6 | 13.0 | 0.00 | 0.00 | 0.00 | 49 | 1011.7 |
| 20260503210009 | 60 | 167 | 2.6 | 13.0 | 0.00 | 0.00 | 0.00 | 49 | 1011.9 |
| 20260503205503 | 60 | 105 | 1.7 | 19.1 | 0.00 | 0.00 | 0.00 | 46 | 1011.8 |
| 20260503205007 | 60 | 140 | 2.6 | 19.1 | 0.00 | 0.00 | 0.00 | 48 | 1012.0 |
| 20260503204513 | 60 | 192 | 7.0 | 17.4 | 0.00 | 0.00 | 0.00 | 47 | 1012.4 |
| 20260503204005 | 60 | 215 | 8.7 | 16.5 | 0.00 | 0.00 | 0.00 | 48 | 1012.2 |
| 20260503203504 | 60 | 179 | 6.1 | 17.4 | 0.00 | 0.00 | 0.00 | 47 | 1012.4 |
| 20260503203014 | 60 | 211 | 7.0 | 17.4 | 0.00 | 0.00 | 0.00 | 47 | 1012.4 |
| 20260503202509 | 61 | 201 | 5.2 | 16.5 | 0.00 | 0.00 | 0.00 | 47 | 1012.4 |
| 20260503202010 | 62 | 221 | 6.1 | 15.6 | 0.00 | 0.00 | 0.00 | 46 | 1012.6 |
| 20260503201508 | 62 | 144 | 3.5 | 13.0 | 0.00 | 0.00 | 0.00 | 47 | 1012.8 |
| 20260503201005 | 61 | 198 | 2.6 | 20.0 | 0.00 | 0.00 | 0.00 | 45 | 1013.0 |
| 20260503200509 | 61 | 195 | 4.3 | 20.0 | 0.00 | 0.00 | 0.00 | 45 | 1013.3 |
| 20260503200030 | 62 | 159 | 8.7 | 19.1 | 0.00 | 0.00 | 0.00 | 44 | 1013.4 |
| 20260503195503 | 61 | 128 | 5.2 | 15.6 | 0.00 | 0.00 | 0.00 | 44 | 1013.4 |
| 20260503195003 | 61 | 207 | 4.3 | 15.6 | 0.00 | 0.00 | 0.00 | 44 | 1013.7 |
| 20260503194509 | 61 | 155 | 5.2 | 12.2 | 0.00 | 0.00 | 0.00 | 44 | 1013.9 |
| 20260503194002 | 60 | 199 | 6.1 | 12.2 | 0.00 | 0.00 | 0.00 | 46 | 1014.2 |
| 20260503193504 | 60 | 214 | 3.5 | 14.8 | 0.00 | 0.00 | 0.00 | 48 | 1014.4 |
| 20260503193015 | 60 | 230 | 4.3 | 16.5 | 0.00 | 0.00 | 0.00 | 45 | 1014.6 |
| 20260503192507 | 61 | 263 | 2.6 | 16.5 | 0.00 | 0.00 | 0.00 | 46 | 1014.8 |
| 20260503192005 | 61 | 198 | 6.1 | 19.1 | 0.00 | 0.00 | 0.00 | 46 | 1014.8 |
| 20260503191518 | 61 | 141 | 6.1 | 19.1 | 0.00 | 0.00 | 0.00 | 44 | 1014.6 |
| 20260503191007 | 61 | 227 | 7.0 | 18.2 | 0.00 | 0.00 | 0.00 | 47 | 1014.7 |
| 20260503190508 | 61 | 233 | 7.0 | 17.4 | 0.00 | 0.00 | 0.00 | 46 | 1014.5 |
| 20260503190036 | 61 | 183 | 4.3 | 11.3 | 0.00 | 0.00 | 0.00 | 45 | 1014.5 |
| 20260503185509 | 61 | 230 | 3.5 | 13.0 | 0.00 | 0.00 | 0.00 | 49 | 1014.7 |
| 20260503185008 | 61 | 214 | 6.1 | 13.0 | 0.00 | 0.00 | 0.00 | 47 | 1014.8 |
| 20260503184514 | 61 | 204 | 5.2 | 13.9 | 0.00 | 0.00 | 0.00 | 44 | 1014.8 |
| 20260503184005 | 61 | 186 | 6.1 | 15.6 | 0.00 | 0.00 | 0.00 | 43 | 1014.6 |
| 20260503183504 | 62 | 162 | 3.5 | 15.6 | 0.00 | 0.00 | 0.00 | 47 | 1014.4 |
| 20260503183017 | 63 | 210 | 1.7 | 14.8 | 0.00 | 0.00 | 0.00 | 44 | 1014.5 |
| 20260503182505 | 63 | 212 | 7.8 | 17.4 | 0.00 | 0.00 | 0.00 | 45 | 1014.9 |
| 20260503182007 | 61 | 166 | 6.1 | 17.4 | 0.00 | 0.00 | 0.00 | 43 | 1015.0 |
| 20260503181518 | 62 | 220 | 3.5 | 18.2 | 0.00 | 0.00 | 0.00 | 45 | 1015.0 |
| 20260503181005 | 61 | 167 | 7.8 | 18.2 | 0.00 | 0.00 | 0.00 | 46 | 1015.2 |
| 20260503180506 | 61 | 196 | 4.3 | 18.2 | 0.00 | 0.00 | 0.00 | 45 | 1015.1 |
| 20260503180035 | 62 | 229 | 3.5 | 14.8 | 0.00 | 0.00 | 0.00 | 47 | 1015.3 |
| 20260503175511 | 62 | 214 | 7.8 | 16.5 | 0.00 | 0.00 | 0.00 | 44 | 1015.5 |
| 20260503175005 | 61 | 217 | 4.3 | 16.5 | 0.00 | 0.00 | 0.00 | 48 | 1015.6 |
| 20260503174522 | 61 | 254 | 4.3 | 16.5 | 0.00 | 0.00 | 0.00 | 49 | 1015.9 |
| 20260503174009 | 60 | 201 | 4.3 | 16.5 | 0.00 | 0.00 | 0.00 | 47 | 1015.9 |
| 20260503173505 | 61 | 230 | 4.3 | 13.0 | 0.00 | 0.00 | 0.00 | 48 | 1016.2 |
| 20260503173011 | 61 | 209 | 5.2 | 15.6 | 0.00 | 0.00 | 0.00 | 48 | 1016.0 |
| 20260503172504 | 61 | 205 | 4.3 | 21.7 | 0.00 | 0.00 | 0.00 | 45 | 1016.3 |
| 20260503172007 | 62 | 215 | 10.4 | 20.9 | 0.00 | 0.00 | 0.00 | 48 | 1016.4 |
| 20260503171530 | 62 | 186 | 2.6 | 13.9 | 0.00 | 0.00 | 0.00 | 51 | 1016.5 |
| 20260503171007 | 61 | 189 | 6.1 | 20.0 | 0.00 | 0.00 | 0.00 | 47 | 1016.6 |
| 20260503170508 | 60 | 200 | 6.1 | 19.1 | 0.00 | 0.00 | 0.00 | 47 | 1016.8 |
| 20260503151007 | 57 | 15 | 2.6 | 14.8 | 0.00 | 0.00 | 0.00 | 54 | 1018.0 |
| 20260503150505 | 56 | 194 | 6.1 | 13.9 | 0.00 | 0.00 | 0.00 | 51 | 1018.2 |
| 20260503131011 | 49 | 212 | 6.1 | 11.3 | 0.00 | 0.00 | 0.00 | 64 | 1018.4 |
| 20260503130512 | 49 | 210 | 5.2 | 11.3 | 0.00 | 0.00 | 0.00 | 66 | 1018.4 |
| 20260503110509 | 36 | 306 | 0.0 | 0.0 | 0.00 | 0.00 | 0.00 | 82 | 1018.2 |
| 20260503090510 | 36 | 306 | 0.0 | 0.0 | 0.00 | 0.00 | 0.00 | 82 | 1018.3 |
| 20260503081537 | 35 | 306 | 0.0 | 0.0 | 0.00 | 0.00 | 0.00 | 83 | 1018.3 |
| 20260503081009 | 35 | 306 | 0.0 | 0.0 | 0.00 | 0.00 | 0.00 | 83 | 1018.3 |
| 20260503080508 | 35 | 306 | 0.0 | 0.0 | 0.00 | 0.00 | 0.00 | 83 | 1018.4 |
| 20260503072509 | 35 | 306 | 0.0 | 0.0 | 0.00 | 0.00 | 0.00 | 83 | 1018.4 |
| 20260503072013 | 35 | 306 | 0.0 | 0.0 | 0.00 | 0.00 | 0.00 | 83 | 1018.4 |
| 20260503071528 | 35 | 306 | 0.0 | 0.0 | 0.00 | 0.00 | 0.00 | 83 | 1018.4 |
| 20260503071006 | 35 | 306 | 0.0 | 0.0 | 0.00 | 0.00 | 0.00 | 83 | 1018.3 |
| 20260503070508 | 35 | 306 | 0.0 | 0.0 | 0.00 | 0.00 | 0.00 | 83 | 1018.4 |
| 20260503055004 | 35 | 306 | 0.0 | 0.0 | 0.00 | 0.00 | 0.00 | 82 | 1018.7 |
| 20260503054525 | 35 | 306 | 0.0 | 0.0 | 0.00 | 0.00 | 0.00 | 82 | 1018.7 |
| 20260503054001 | 35 | 306 | 0.0 | 0.0 | 0.00 | 0.00 | 0.00 | 82 | 1018.8 |
| 20260503053501 | 35 | 306 | 0.0 | 0.0 | 0.00 | 0.00 | 0.00 | 81 | 1018.8 |
| 20260503053009 | 35 | 306 | 0.0 | 0.0 | 0.00 | 0.00 | 0.00 | 80 | 1018.8 |
| 20260503052502 | 35 | 306 | 0.0 | 0.0 | 0.00 | 0.00 | 0.00 | 80 | 1018.8 |
| 20260503052004 | 35 | 306 | 0.0 | 0.0 | 0.00 | 0.00 | 0.00 | 81 | 1018.8 |
| 20260503051507 | 35 | 306 | 0.0 | 0.0 | 0.00 | 0.00 | 0.00 | 81 | 1018.8 |
| 20260503051006 | 35 | 306 | 0.0 | 0.0 | 0.00 | 0.00 | 0.00 | 81 | 1018.8 |
| 20260503050502 | 35 | 306 | 0.0 | 0.0 | 0.00 | 0.00 | 0.00 | 80 | 1018.8 |
| 20260503050011 | 36 | 306 | 0.0 | 0.0 | 0.00 | 0.00 | 0.00 | 79 | 1018.8 |
| 20260503045507 | 36 | 306 | 0.0 | 0.0 | 0.00 | 0.00 | 0.00 | 80 | 1018.8 |
| 20260503045007 | 36 | 306 | 0.0 | 0.0 | 0.00 | 0.00 | 0.00 | 79 | 1018.8 |
| 20260503044508 | 36 | 306 | 0.0 | 0.0 | 0.00 | 0.00 | 0.00 | 79 | 1018.9 |
| 20260503044004 | 36 | 306 | 0.0 | 0.0 | 0.00 | 0.00 | 0.00 | 78 | 1018.9 |
| 20260503043507 | 36 | 306 | 0.0 | 0.0 | 0.00 | 0.00 | 0.00 | 78 | 1018.9 |
| 20260503043005 | 36 | 306 | 0.0 | 0.0 | 0.00 | 0.00 | 0.00 | 79 | 1018.9 |
| 20260503042502 | 36 | 306 | 0.0 | 0.0 | 0.00 | 0.00 | 0.00 | 79 | 1018.9 |
| 20260503042002 | 37 | 306 | 0.0 | 0.0 | 0.00 | 0.00 | 0.00 | 79 | 1018.9 |
| 20260503041506 | 37 | 306 | 0.0 | 0.0 | 0.00 | 0.00 | 0.00 | 79 | 1018.9 |
| 20260503041002 | 37 | 306 | 0.0 | 0.0 | 0.00 | 0.00 | 0.00 | 77 | 1019.0 |
| 20260503040505 | 37 | 306 | 0.0 | 0.0 | 0.00 | 0.00 | 0.00 | 76 | 1019.0 |
| 20260503040013 | 37 | 306 | 0.0 | 0.0 | 0.00 | 0.00 | 0.00 | 75 | 1019.0 |
| 20260503035503 | 37 | 306 | 0.0 | 0.0 | 0.00 | 0.00 | 0.00 | 77 | 1019.1 |
| 20260503035004 | 37 | 306 | 0.0 | 0.0 | 0.00 | 0.00 | 0.00 | 77 | 1019.1 |
| 20260503034514 | 37 | 306 | 0.0 | 0.0 | 0.00 | 0.00 | 0.00 | 77 | 1019.1 |
| 20260503034006 | 37 | 306 | 0.0 | 0.0 | 0.00 | 0.00 | 0.00 | 76 | 1019.2 |
| 20260503033503 | 37 | 306 | 0.0 | 0.0 | 0.00 | 0.00 | 0.00 | 76 | 1019.0 |
| 20260503033020 | 38 | 306 | 0.0 | 0.0 | 0.00 | 0.00 | 0.00 | 75 | 1018.9 |
| 20260503032506 | 38 | 306 | 0.0 | 0.0 | 0.00 | 0.00 | 0.00 | 74 | 1018.8 |
| 20260503032009 | 38 | 306 | 0.0 | 0.0 | 0.00 | 0.00 | 0.00 | 75 | 1018.8 |
| 20260503031507 | 38 | 306 | 0.0 | 0.0 | 0.00 | 0.00 | 0.00 | 73 | 1018.9 |
| 20260503031004 | 38 | 306 | 0.0 | 0.0 | 0.00 | 0.00 | 0.00 | 73 | 1018.9 |
| 20260503030502 | 38 | 306 | 0.0 | 0.0 | 0.00 | 0.00 | 0.00 | 73 | 1018.9 |
| 20260503030007 | 38 | 306 | 0.0 | 0.0 | 0.00 | 0.00 | 0.00 | 75 | 1018.9 |
| 20260503025502 | 39 | 306 | 0.0 | 0.0 | 0.00 | 0.00 | 0.00 | 73 | 1018.9 |
| 20260503025002 | 39 | 306 | 0.0 | 0.0 | 0.00 | 0.00 | 0.00 | 71 | 1018.9 |
| 20260503024513 | 39 | 306 | 0.0 | 0.0 | 0.00 | 0.00 | 0.00 | 71 | 1018.8 |
| 20260503024004 | 39 | 306 | 0.0 | 0.0 | 0.00 | 0.00 | 0.00 | 72 | 1018.7 |
| 20260503023508 | 39 | 306 | 0.0 | 0.0 | 0.00 | 0.00 | 0.00 | 70 | 1018.7 |
| 20260503023015 | 39 | 306 | 0.0 | 0.0 | 0.00 | 0.00 | 0.00 | 68 | 1018.7 |
| 20260503022503 | 40 | 306 | 0.0 | 0.0 | 0.00 | 0.00 | 0.00 | 69 | 1018.7 |
| 20260503022004 | 40 | 306 | 0.0 | 0.0 | 0.00 | 0.00 | 0.00 | 68 | 1018.7 |
| 20260503021525 | 40 | 306 | 0.0 | 0.0 | 0.00 | 0.00 | 0.00 | 68 | 1018.7 |
| 20260503021009 | 41 | 306 | 0.0 | 0.0 | 0.00 | 0.00 | 0.00 | 69 | 1018.7 |
| 20260503020502 | 41 | 306 | 0.0 | 0.0 | 0.00 | 0.00 | 0.00 | 67 | 1018.6 |
| 20260503020006 | 41 | 306 | 0.0 | 0.0 | 0.00 | 0.00 | 0.00 | 68 | 1018.6 |
| 20260503015506 | 41 | 306 | 0.0 | 0.0 | 0.00 | 0.00 | 0.00 | 66 | 1018.6 |
| 20260503015002 | 41 | 306 | 0.0 | 0.0 | 0.00 | 0.00 | 0.00 | 65 | 1018.6 |
| 20260503014511 | 42 | 306 | 0.0 | 0.0 | 0.00 | 0.00 | 0.00 | 65 | 1018.5 |
| 20260503014004 | 42 | 306 | 0.0 | 0.0 | 0.00 | 0.00 | 0.00 | 66 | 1018.5 |
| 20260503013506 | 42 | 306 | 0.0 | 0.0 | 0.00 | 0.00 | 0.00 | 62 | 1018.4 |
| 20260503013006 | 42 | 306 | 0.0 | 0.0 | 0.00 | 0.00 | 0.00 | 65 | 1018.4 |
| 20260503012507 | 43 | 306 | 0.0 | 0.0 | 0.00 | 0.00 | 0.00 | 64 | 1018.3 |
| 20260503012007 | 43 | 306 | 0.0 | 0.0 | 0.00 | 0.00 | 0.00 | 63 | 1018.3 |
| 20260503011521 | 43 | 306 | 0.0 | 0.0 | 0.00 | 0.00 | 0.00 | 63 | 1018.2 |
| 20260503011004 | 44 | 306 | 0.0 | 0.0 | 0.00 | 0.00 | 0.00 | 62 | 1018.3 |
| 20260503010508 | 44 | 306 | 0.0 | 0.0 | 0.00 | 0.00 | 0.00 | 58 | 1018.2 |
| 20260503010021 | 45 | 306 | 0.0 | 0.0 | 0.00 | 0.00 | 0.00 | 57 | 1018.2 |
| 20260503005502 | 45 | 306 | 0.0 | 0.0 | 0.00 | 0.00 | 0.00 | 56 | 1018.2 |
| 20260503005003 | 46 | 306 | 0.0 | 0.0 | 0.00 | 0.00 | 0.00 | 56 | 1018.3 |
| 20260503004520 | 46 | 306 | 0.0 | 0.0 | 0.00 | 0.00 | 0.00 | 52 | 1018.2 |
| 20260503004006 | 47 | 306 | 0.0 | 0.0 | 0.00 | 0.00 | 0.00 | 53 | 1018.2 |
| 20260503003503 | 48 | 306 | 0.0 | 0.0 | 0.00 | 0.00 | 0.00 | 48 | 1018.1 |
| 20260503003015 | 48 | 306 | 0.0 | 0.0 | 0.00 | 0.00 | 0.00 | 49 | 1018.1 |
| 20260503002504 | 49 | 306 | 0.0 | 0.0 | 0.00 | 0.00 | 0.00 | 46 | 1018.1 |
| 20260503002004 | 50 | 306 | 0.0 | 0.0 | 0.00 | 0.00 | 0.00 | 45 | 1018.1 |
| 20260503001516 | 51 | 306 | 0.0 | 0.0 | 0.00 | 0.00 | 0.00 | 43 | 1018.1 |
| 20260503001009 | 51 | 306 | 0.0 | 0.0 | 0.00 | 0.00 | 0.00 | 39 | 1018.1 |
| 20260503000513 | 52 | 306 | 0.0 | 0.0 | 0.00 | 0.00 | 0.00 | 42 | 1018.1 |